sat.trackr.live / text

‹ back to catalog

2025-108E

NORAD 64091 · 2025-108E

PAYLOAD ACTIVE UNKNOWN

§ Identity

Operator
Country
PRC
Launch date
2025-05-21
Launch site
JSC
Launch vehicle
Mass (kg)
RCS (m²)

External: N2YO · Heavens-Above · Gunter

§ Orbital elements

Epoch: 2026-09-21T23:09:55.178208Z

Period
94.32 min
Inclination
97.4602°
Eccentricity
0.0011624
Mean motion
15.26645382 rev/d
Perigee alt
477.9 km
Apogee alt
493.8 km
Semi-major
6,864.0 km
B*
3.7131e-4
RAAN
341.6176°
Arg perigee
27.3331°
Mean anomaly
332.8517°
Rev number
7,420

§ Raw data

2025-108E1 64091U 25108E   26264.96522197  .00009682  00000+0  37131-3 0  99992 64091  97.4602 341.6176 0011624  27.3331 332.8517 15.26645382 74205

JSON: /api/v1/satellites/64091 · /tle

For live sub-satellite position, see the globe view (requires WebGL).

§ Visibility from observer

Set your observer location to see the next 7 days of passes ≥ 10°. The values pass through the URL so the page stays shareable.

No JS? Fill the form by hand. The geolocation button needs JavaScript.